SCP
0 0 0 0 0 0 0 0 0 0 0 0 0 0 0 0 0 0 0 0 0 0 0 0 0 0 0 0 0 0 0 0 0 0 0 0 0 0
0 0 0 0 0 0 0 0 0 0 0 0 0 0 0 0 0 0 0 0 0 0 0 0 0 0 0 0 0 0 0 0 0 0 0 0 0 0
0 0 0 0 0 0 0 0 0 0 0 0 0 0 0 0 0 0 0 0 0 0 0 0 0 0 0 0 0 0 0 0 0 0 0 0 0 0
0 0 0 0 0 0 0 0 0 0 0 0 0 0 0 0 0 0 0 0 0 0 0 0 0 0 0 0 0 0 0 0 0 0 0 0 0 0
0 0 0 0 0 0 0 0 0 0 0 0 0 0 0 0 0 0 0 0 0 0 0 0 0 0 0 0 0 0 0 0 0 0 0 0 0 0
0 0 0 0 0 0 0 0 0 0 0 0 0 0 0 0 0 0 0 0 0 0 0 0 0 0 0 0 0 0 0 0 0 0 0 0 0 0
0 0 0 0 0 0 0 0 0 0 0 0 0 0 0 0 0 0 0 0 0 0 0 0 0 0 0 0 0 0 0 0 0 0 0 0 0 0
0 0 0 0 0 0 0 0 0 0 0 0 0 0 0 0 0 0 0 0 0 0 0 0 0 0 0 0 0 0 0 0 0 0 0 0 0 0
0 0 0 0 0 0 0 0 0 0 0 0 0 0 0 0 0 0 0 0 0 0 0 0 0 0 0 0 0 0 0 0 0 0 0 0 0 0
0 0 0 0 0 0 0 0 0 0 0 0 0 0 0 0 0 0 0 0 0 0 0 0 0 0 0 0 0 0 0 0 0 0 0 0 0 0
0 0 0 0 0 0 0 0 0 0 0 0 0 0 0 0 0 0 0 0 0 0 0 0 0 0 0 0 0 0 0 0 0 0 0 0 0 0
0 0 0 0 0 0 0 0 0 0 0 0 0 0 0 0 0 0 0 0 0 0 0 0 0 0 0 0 0 0 0 0 0 0 0 0 0 0
0 0 0 0 0 0 0 0 0 0 0 0 0 0 0 0 0 0 0 0 0 0 0 0 0 0 0 0 0 0 0 0 0 0 0 0 0 0
0 0 0 0 0 0 0 0 0 0 0 0 0 0 0 0 0 0 0 0 0 0 0 0 0 0 0 0 0 0 0 0 0 0 0 0 0 0
0 0 0 0 0 0 0 0 0 0 0 0 0 0 0 0 0 0 0 0 0 0 0 0 0 0 0 0 0 0 0 0 0 0 0 0 0 0
0 0 0 0 0 0 0 0 0 0 0 0 0 0 0 0 0 0 0 0 0 0 0 0 0 0 0 0 0 0 0 0 0 0 0 0 0 0
0 0 0 0 0 0 0 0 0 0 0 0 0 0 0 0 0 0 0 0 0 0 0 0 0 0 0 0 0 0 0 0 0 0 0 0 0 0
0 0 0 0 0 0 0 0 0 0 0 0 0 0 0 0 0 0 0 0 0 0 0 0 0 0 0 0 0 0 0 0 0 0 0 0 0 0
0 0 0 0 0 0 0 0 0 0 0 0 0 0 0 0 0 0 0 0 0 0 0 0 0 0 0 0 0 0 0 0 0 0 0 0 0 0
0 0 0 0 0 0 0 0 0 0 0 0 0 0 0 0 0 0 0 0 0 0 0 0 0 0 0 0 0 0 0 0 0 0 0 0 0 0
0 0 0 0 0 0 0 0 0 0 0 0 0 0 0 0 0 0 0 0 0 0 0 0 0 0 0 0 0 0 0 0 0 0 0 0 0 0
0 0 0 0 0 0 0 0 0 0 0 0 0 0 0 0 0 0 0 0 0 0 0 0 0 0 0 0 0 0 0 0 0 0 0 0 0 0
0 0 0 0 0 0 0 0 0 0 0 0 0 0 0 0 0 0 0 0 0 0 0 0 0 0 0 0 0 0 0 0 0 0 0 0 0 0
Wind_Speed
5 6 4 4 4 4 4 4 4 3 4 3 3 3 3 4 6 5 6 7 9 10 10 10 11 11 11 11 11 11 11 10 10 10 10 10 11 11
4 5 5 4 4 4 4 4 4 4 4 3 3 3 2 3 4 5 5 6 7 8 9 9 10 10 11 11 11 11 11 11 11 11 11 11 11 11
5 6 6 5 4 4 4 4 5 4 5 4 2 2 2 3 2 3 4 4 4 6 7 8 8 9 9 10 10 10 11 11 11 11 11 11 11 12
7 6 7 5 6 5 5 5 5 5 5 5 3 2 3 3 2 3 3 3 3 4 6 6 7 7 8 8 9 9 10 10 10 10 11 11 11 12
7 7 7 6 7 5 6 6 5 5 5 5 4 3 2 2 2 2 2 2 3 3 4 5 6 6 6 7 7 8 8 9 9 9 10 10 10 10
7 7 7 8 8 7 6 6 5 5 5 4 4 3 3 2 2 2 2 2 2 2 2 2 3 4 4 5 5 6 7 7 8 8 8 9 9 9
6 7 7 8 8 7 6 5 5 5 4 4 4 3 3 2 3 2 3 2 2 2 1 1 1 2 2 3 5 5 6 7 7 8 8 8 9 9
6 6 6 7 8 9 9 8 7 6 6 5 4 5 5 4 3 3 3 2 3 1 2 2 1 2 2 2 3 4 5 6 7 7 7 8 8 9
5 4 4 4 5 5 6 6 6 7 8 6 6 6 5 5 4 4 4 4 4 2 2 3 2 3 2 2 3 3 4 4 5 5 6 6 7 7
3 3 4 3 3 3 3 3 3 3 4 4 4 4 4 4 4 4 3 3 2 1 2 3 2 3 3 2 3 3 3 3 4 4 5 5 5 6
2 2 3 3 3 2 2 2 2 2 1 1 1 0 1 1 1 2 2 2 2 2 1 2 2 2 2 3 2 1 2 2 3 3 3 3 4 5
0 1 1 1 1 2 2 2 2 1 0 1 2 2 2 2 2 1 2 2 2 2 1 2 2 1 2 2 1 1 1 2 3 3 3 4 4 3
1 1 2 2 2 1 2 2 1 1 1 1 1 2 2 2 2 1 0 1 2 2 1 1 1 1 2 3 2 1 2 2 2 2 2 3 3 2
1 1 2 3 4 3 2 3 3 3 2 3 2 2 2 2 1 1 1 1 0 1 1 0 1 2 2 3 3 2 2 2 2 2 3 3 2 2
2 4 4 4 4 4 4 4 3 3 3 3 2 2 2 2 2 2 2 2 2 2 3 2 1 1 2 3 3 2 3 2 2 2 3 2 2 2
2 4 6 6 5 5 5 4 3 3 3 2 2 2 2 2 3 2 2 2 2 2 3 3 2 1 2 2 2 2 2 2 3 3 3 2 2 2
3 3 4 4 4 4 4 4 3 3 3 2 2 2 2 2 2 2 2 2 2 2 3 3 3 2 2 1 1 2 2 3 3 3 3 3 3 2
5 4 4 3 3 3 3 3 3 3 2 2 2 2 2 2 2 2 2 2 2 2 3 3 3 2 1 1 1 2 2 3 3 3 3 3 3 3
6 4 4 4 4 4 3 3 3 3 2 2 2 2 2 2 2 2 2 2 2 3 3 3 3 2 3 3 3 2 2 3 3 3 3 3 3 4
5 4 4 4 4 4 4 4 3 3 3 3 3 3 2 2 2 2 2 3 2 2 3 3 3 3 2 3 3 3 3 3 3 3 3 3 3 4
5 4 4 4 4 4 4 4 4 4 4 3 3 3 3 3 3 2 2 3 3 3 3 4 4 4 2 1 2 3 4 3 3 3 4 3 4 3
4 4 4 4 4 4 4 3 4 4 4 4 4 4 3 3 3 3 3 3 3 3 3 4 4 3 2 2 3 4 5 5 4 4 4 3 4 4
4 4 4 4 4 4 3 4 4 4 4 4 4 4 3 3 3 3 3 3 3 4 4 4 3 3 3 2 3 4 5 6 5 5 5 6 6 6
Wind_Direction
216 213 215 218 212 213 205 196 196 235 258 253 253 251 238 233 234 228 232 235 234 236 237 239 240 240 240 238 237 238 239 240 240 241 243 245 248 251
216 216 222 222 217 211 209 209 206 211 241 244 238 255 252 243 224 225 233 237 237 239 241 241 241 240 240 238 237 236 238 239 239 240 242 242 243 246
224 222 230 219 220 218 210 209 211 206 232 252 233 246 242 245 247 230 231 231 239 239 241 241 241 242 241 239 238 238 238 238 239 242 243 243 243 245
228 228 235 227 225 223 215 218 217 210 218 243 240 232 235 233 235 240 242 233 232 233 233 236 239 240 240 240 240 240 241 241 241 242 244 245 247 248
228 227 232 226 231 228 222 225 224 218 216 228 241 227 237 232 230 238 238 250 243 237 233 236 238 237 239 243 245 244 243 243 243 244 245 246 248 250
235 233 233 227 230 229 228 228 225 221 218 225 239 240 237 231 215 239 255 241 254 264 256 240 239 237 244 248 248 244 241 240 241 242 244 245 245 247
242 240 238 234 229 224 226 224 220 221 222 225 236 239 237 221 223 223 242 253 251 239 247 250 245 250 252 253 250 248 241 237 237 239 241 241 243 246
247 250 248 240 236 229 227 223 217 221 226 227 231 233 238 229 220 217 223 235 255 225 221 256 231 250 255 252 257 247 244 244 243 242 242 243 244 245
245 250 258 256 240 236 232 228 227 230 224 223 228 231 233 225 211 214 216 220 239 244 203 254 248 252 257 261 249 246 248 248 249 247 246 248 250 251
254 254 259 265 256 228 221 231 237 244 234 222 227 238 243 234 213 216 217 219 240 249 208 244 257 255 268 267 268 254 260 265 271 271 265 261 259 257
270 278 267 265 273 202 196 218 244 271 280 171 174 237 329 322 199 182 199 211 252 258 208 229 263 272 271 265 268 284 292 301 297 287 283 284 280 271
311 343 342 280 295 187 194 193 213 256 170 79 75 30 14 19 49 198 216 218 237 256 217 211 246 265 275 260 277 306 315 320 300 291 301 306 299 286
53 355 1 39 51 93 144 140 168 150 109 95 82 53 35 34 34 25 276 209 221 249 272 207 235 238 252 280 291 307 318 318 318 311 307 312 306 283
91 39 34 49 58 62 85 81 85 87 77 74 69 49 32 15 5 17 45 75 100 271 319 241 240 250 256 267 282 303 315 315 311 318 330 332 321 303
81 70 53 52 66 67 62 65 75 82 83 74 61 32 11 6 18 25 28 40 44 22 9 346 297 276 258 265 282 297 308 308 313 324 327 327 322 319
76 66 62 57 60 57 52 54 62 71 88 87 69 33 25 28 25 15 7 2 12 5 8 5 346 303 274 272 268 291 308 312 327 329 321 322 332 327
88 70 60 57 57 53 53 52 55 60 62 56 57 44 33 30 16 8 6 10 8 343 346 353 349 335 314 299 302 317 326 330 333 331 325 328 334 336
83 69 60 56 56 56 54 49 47 46 41 45 49 43 34 25 17 16 14 6 357 348 342 339 340 346 354 29 339 310 328 330 329 330 328 324 327 334
75 64 58 52 48 45 44 46 41 32 35 45 44 36 30 23 20 17 14 10 3 353 348 348 348 347 340 338 354 352 324 328 327 331 336 326 315 318
62 60 55 50 49 47 42 37 32 30 35 37 36 30 26 25 26 22 16 6 359 355 353 355 356 346 324 317 316 326 328 317 323 325 323 318 306 302
60 56 51 49 46 47 45 40 37 35 31 31 32 31 27 29 27 18 12 9 9 5 357 351 339 326 304 297 314 333 342 337 313 306 312 312 314 306
58 56 49 49 47 47 45 42 41 38 33 33 29 26 24 28 26 18 16 12 6 359 346 341 346 354 359 347 340 336 338 344 347 333 315 296 308 308
53 53 51 49 46 43 43 41 41 34 27 26 22 15 17 23 21 17 12 8 359 357 354 350 354 359 356 347 341 338 339 340 342 347 346 344 327 306